CCSDS_OMM_VERS = 2.0 CREATION_DATE = ORIGINATOR = OBJECT_NAME = COSMOS 2407 OBJECT_ID = 2004-028A CENTER_NAME = EARTH REF_FRAME = TEME TIME_SYSTEM = UTC MEAN_ELEMENT_THEORY = SGP/SGP4 EPOCH = 2026-09-12T02:34:46.094880 MEAN_MOTION = 13.76340069 ECCENTRICITY = .003938 INCLINATION = 82.9645 RA_OF_ASC_NODE = 10.4467 ARG_OF_PERICENTER = 11.3084 MEAN_ANOMALY = 160.8101 EPHEMERIS_TYPE = 0 CLASSIFICATION_TYPE = U NORAD_CAT_ID = 28380 ELEMENT_SET_NO = 999 REV_AT_EPOCH = 11183 BSTAR = .34178E-4 MEAN_MOTION_DOT = .49000E-6 MEAN_MOTION_DDOT = 0 CCSDS_OMM_VERS = 2.0 CREATION_DATE = ORIGINATOR = OBJECT_NAME = COSMOS 2414 OBJECT_ID = 2005-002A CENTER_NAME = EARTH REF_FRAME = TEME TIME_SYSTEM = UTC MEAN_ELEMENT_THEORY = SGP/SGP4 EPOCH = 2026-09-11T23:22:23.831616 MEAN_MOTION = 13.87933747 ECCENTRICITY = .0041512 INCLINATION = 82.9538 RA_OF_ASC_NODE = 338.0024 ARG_OF_PERICENTER = 82.3822 MEAN_ANOMALY = 278.2054 EPHEMERIS_TYPE = 0 CLASSIFICATION_TYPE = U NORAD_CAT_ID = 28521 ELEMENT_SET_NO = 999 REV_AT_EPOCH = 9585 BSTAR = .37081E-4 MEAN_MOTION_DOT = .61000E-6 MEAN_MOTION_DDOT = 0 CCSDS_OMM_VERS = 2.0 CREATION_DATE = ORIGINATOR = OBJECT_NAME = COSMOS 2463 OBJECT_ID = 2010-017A CENTER_NAME = EARTH REF_FRAME = TEME TIME_SYSTEM = UTC MEAN_ELEMENT_THEORY = SGP/SGP4 EPOCH = 2026-09-11T22:09:14.581152 MEAN_MOTION = 13.71670095 ECCENTRICITY = .003472 INCLINATION = 82.964 RA_OF_ASC_NODE = 185.9829 ARG_OF_PERICENTER = 248.8415 MEAN_ANOMALY = 179.4463 EPHEMERIS_TYPE = 0 CLASSIFICATION_TYPE = U NORAD_CAT_ID = 36519 ELEMENT_SET_NO = 999 REV_AT_EPOCH = 81982 BSTAR = .22237E-4 MEAN_MOTION_DOT = .35000E-6 MEAN_MOTION_DDOT = 0